GW3387 Weather Reports


Display with metric or nautical units.
time (UTC)temp
F
wind
direction
speed
MPH
gust
MPH
rain 1hr
in
rain 24hr
in
rain mn
in
humidity
%
barometer
mb
20260505041601 45 360 0.0 0.0 0.00 0.00 0.00 100 1012.2
20260505040053 42 360 0.0 0.0 0.00 0.00 0.00 100 1012.1
20260505034540 40 360 0.0 0.0 0.00 0.00 0.00 100 1012.1
20260505033041 39 277 0.0 0.0 0.00 0.00 0.00 100 1012.1
20260505031543 38 277 0.0 0.0 0.00 0.00 0.00 100 1012.0
20260505030037 39 277 0.0 0.0 0.00 0.00 0.00 100 1011.9
20260505024529 39 277 0.0 0.0 0.00 0.00 0.00 100 1011.8
20260505023038 40 277 0.0 0.0 0.00 0.00 0.00 100 1011.8
20260505021528 39 277 0.0 0.0 0.00 0.00 0.00 100 1011.8
20260505020026 39 277 0.0 0.0 0.00 0.00 0.00 100 1011.8
20260505014522 40 277 0.0 0.0 0.00 0.00 0.00 100 1011.8
20260505013024 40 277 0.0 0.0 0.00 0.00 0.00 100 1011.8
20260505011527 41 277 0.0 0.0 0.00 0.00 0.00 100 1011.7
20260505010016 41 277 0.0 0.0 0.00 0.00 0.00 100 1011.6
20260505004524 42 277 0.0 0.0 0.00 0.00 0.00 100 1011.7
20260505003012 42 277 0.0 0.0 0.00 0.00 0.00 100 1011.5
20260505001511 42 277 0.0 0.0 0.00 0.00 0.00 100 1011.7
20260505000013 43 277 0.0 0.0 0.00 0.00 0.00 100 1011.8
20260504234508 43 277 0.0 0.0 0.00 0.00 0.00 100 1011.7
20260504233007 43 277 0.0 0.0 0.00 0.00 0.00 100 1011.6
20260504231504 43 277 0.0 0.0 0.00 0.00 0.00 100 1011.6
20260504230002 45 360 0.0 0.0 0.00 0.00 0.00 100 1011.7
20260504224609 45 360 0.0 1.0 0.00 0.00 0.00 100 1011.7
20260504223056 45 360 0.0 2.0 0.00 0.00 0.00 100 1011.6
20260504221555 46 360 0.0 0.0 0.00 0.00 0.00 100 1011.5
20260504220051 47 360 0.0 1.0 0.00 0.00 0.00 100 1011.6
20260504214547 47 360 0.0 0.0 0.00 0.00 0.00 100 1011.7
20260504213101 49 360 0.0 0.0 0.00 0.00 0.00 100 1011.8
20260504211542 49 360 0.0 0.0 0.00 0.00 0.00 100 1011.7
20260504210040 49 360 0.0 0.0 0.00 0.00 0.00 100 1011.7
20260504204537 50 360 0.0 0.0 0.00 0.00 0.00 100 1011.7
20260504203036 51 360 0.0 0.0 0.00 0.00 0.00 100 1011.6
20260504201534 52 360 0.0 0.0 0.00 0.00 0.00 100 1011.7
20260504200030 53 360 0.0 0.0 0.00 0.00 0.00 100 1011.6
20260504194527 53 360 0.0 0.0 0.00 0.00 0.00 100 1011.5
20260504193024 55 360 0.0 0.0 0.00 0.00 0.00 100 1011.5
20260504191520 56 360 0.0 1.0 0.00 0.00 0.00 100 1011.5
20260504190016 56 360 0.0 0.0 0.00 0.00 0.00 100 1011.5
20260504184514 58 360 0.0 0.0 0.00 0.00 0.00 100 1011.6
20260504183007 60 360 0.0 0.0 0.00 0.00 0.00 100 1011.5
20260504181502 62 360 0.0 0.0 0.00 0.00 0.00 100 1011.4
20260504180058 64 360 0.0 0.0 0.00 0.00 0.00 100 1011.2
20260504174602 65 360 0.0 0.0 0.00 0.00 0.00 100 1011.1
20260504173053 68 360 0.0 0.0 0.00 0.00 0.00 100 1011.0
20260504171545 70 360 0.0 0.0 0.00 0.00 0.00 100 1011.0
20260504130105 79 273 4.0 4.0 0.00 0.00 0.00 91 1012.2
20260504110119 78 346 3.0 9.0 0.00 0.00 0.00 91 1013.1
20260504081526 74 346 2.0 6.0 0.00 0.00 0.00 98 1014.3